| time (UTC) | temp C | wind direction | speed KPH | gust KPH | rain 1hr cm | rain 24hr cm | rain mn cm | humidity % | barometer mb |
| 20260503200005 | 17 | 360 | 3.2 | 9.7 | 0.00 | 0.00 | 0.00 | 32 | 1016.5 |
| 20260503195410 | 17 | 360 | 3.2 | 14.5 | 0.00 | 0.00 | 0.00 | 34 | 1016.4 |
| 20260503194504 | 17 | 360 | 4.8 | 17.7 | 0.00 | 0.00 | 0.00 | 32 | 1016.7 |
| 20260503193604 | 17 | 360 | 3.2 | 14.5 | 0.00 | 0.00 | 0.00 | 32 | 1016.7 |
| 20260503192705 | 17 | 360 | 3.2 | 9.7 | 0.00 | 0.00 | 0.00 | 33 | 1016.8 |
| 20260503192015 | 17 | 360 | 3.2 | 11.3 | 0.00 | 0.00 | 0.00 | 32 | 1016.9 |
| 20260503190905 | 17 | 360 | 3.2 | 12.9 | 0.00 | 0.00 | 0.00 | 35 | 1017.1 |
| 20260503190005 | 17 | 360 | 4.8 | 16.1 | 0.00 | 0.00 | 0.00 | 32 | 1017.0 |
| 20260503185404 | 17 | 359 | 1.6 | 8.0 | 0.00 | 0.00 | 0.00 | 33 | 1017.0 |
| 20260503184504 | 16 | 357 | 4.8 | 17.7 | 0.00 | 0.00 | 0.00 | 36 | 1017.3 |
| 20260503183816 | 16 | 3 | 4.8 | 11.3 | 0.00 | 0.00 | 0.00 | 39 | 1017.3 |
| 20260503182704 | 16 | 360 | 4.8 | 14.5 | 0.00 | 0.00 | 0.00 | 37 | 1017.1 |
| 20260503181804 | 16 | 360 | 4.8 | 19.3 | 0.00 | 0.00 | 0.00 | 36 | 1017.3 |
| 20260503180905 | 15 | 360 | 4.8 | 12.9 | 0.00 | 0.00 | 0.00 | 36 | 1017.3 |
| 20260503180005 | 15 | 360 | 6.4 | 17.7 | 0.00 | 0.00 | 0.00 | 37 | 1017.4 |
| 20260503175404 | 15 | 360 | 4.8 | 16.1 | 0.00 | 0.00 | 0.00 | 37 | 1017.4 |
| 20260503174504 | 15 | 360 | 3.2 | 16.1 | 0.00 | 0.00 | 0.00 | 37 | 1017.5 |
| 20260503173605 | 15 | 360 | 4.8 | 16.1 | 0.00 | 0.00 | 0.00 | 38 | 1017.6 |
| 20260503172705 | 15 | 360 | 4.8 | 16.1 | 0.00 | 0.00 | 0.00 | 37 | 1017.7 |
| 20260503171805 | 15 | 360 | 4.8 | 14.5 | 0.00 | 0.00 | 0.00 | 39 | 1017.8 |
| 20260503170904 | 15 | 360 | 6.4 | 12.9 | 0.00 | 0.00 | 0.00 | 38 | 1017.8 |
| 20260503150904 | 12 | 360 | 6.4 | 22.5 | 0.00 | 0.03 | 0.00 | 42 | 1018.5 |
| 20260503150217 | 12 | 360 | 4.8 | 19.3 | 0.00 | 0.03 | 0.00 | 46 | 1018.4 |
| 20260503131116 | 11 | 360 | 4.8 | 12.9 | 0.00 | 0.03 | 0.00 | 51 | 1018.1 |
| 20260503130219 | 11 | 360 | 4.8 | 17.7 | 0.00 | 0.03 | 0.00 | 54 | 1018.0 |
| 20260503080905 | 11 | 360 | 3.2 | 9.7 | 0.00 | 0.03 | 0.00 | 58 | 1014.1 |
| 20260503072705 | 9 | 360 | 4.8 | 14.5 | 0.00 | 0.03 | 0.00 | 20 | 1013.7 |
| 20260503071805 | 8 | 360 | 0.0 | 1.6 | 0.00 | 0.03 | 0.00 | 1 | 1013.7 |
| 20260503070904 | 8 | 360 | 0.0 | 1.6 | 0.00 | 0.03 | 0.00 | 1 | 1013.6 |
| 20260503054505 | 7 | 0 | 0.0 | 0.0 | 0.00 | 0.03 | 0.00 | 1 | 1013.1 |
| 20260503053604 | 8 | 0 | 0.0 | 0.0 | 0.00 | 0.03 | 0.00 | 1 | 1013.1 |
| 20260503052705 | 8 | 0 | 0.0 | 0.0 | 0.00 | 0.03 | 0.00 | 1 | 1013.2 |
| 20260503051809 | 8 | 0 | 0.0 | 0.0 | 0.00 | 0.03 | 0.00 | 1 | 1013.2 |
| 20260503050905 | 8 | 0 | 0.0 | 0.0 | 0.00 | 0.03 | 0.00 | 1 | 1013.1 |
| 20260503050005 | 8 | 0 | 0.0 | 0.0 | 0.00 | 0.03 | 0.00 | 1 | 1013.1 |
| 20260503045405 | 8 | 0 | 0.0 | 0.0 | 0.00 | 0.03 | 0.00 | 1 | 1013.2 |
| 20260503044718 | 8 | 0 | 0.0 | 0.0 | 0.00 | 0.03 | 0.00 | 1 | 1013.3 |
| 20260503043605 | 8 | 0 | 0.0 | 0.0 | 0.00 | 0.03 | 0.00 | 1 | 1013.3 |
| 20260503042709 | 8 | 0 | 0.0 | 0.0 | 0.00 | 0.03 | 0.00 | 1 | 1013.2 |
| 20260503041805 | 9 | 0 | 0.0 | 0.0 | 0.00 | 0.03 | 0.00 | 1 | 1013.2 |
| 20260503040905 | 9 | 0 | 0.0 | 0.0 | 0.00 | 0.03 | 0.00 | 1 | 1013.2 |
| 20260503040113 | 9 | 0 | 0.0 | 0.0 | 0.00 | 0.03 | 0.00 | 1 | 1013.1 |
| 20260503035405 | 9 | 0 | 0.0 | 0.0 | 0.00 | 0.03 | 0.03 | 1 | 1013.1 |
| 20260503034718 | 10 | 0 | 0.0 | 0.0 | 0.00 | 0.03 | 0.03 | 1 | 1013.3 |
| 20260503033604 | 10 | 0 | 0.0 | 0.0 | 0.00 | 0.03 | 0.03 | 1 | 1013.3 |
| 20260503032918 | 10 | 0 | 0.0 | 0.0 | 0.00 | 0.03 | 0.03 | 1 | 1013.2 |
| 20260503032015 | 10 | 0 | 0.0 | 0.0 | 0.00 | 0.03 | 0.03 | 1 | 1013.0 |
| 20260503030904 | 10 | 360 | 0.0 | 1.6 | 0.00 | 0.03 | 0.03 | 4 | 1013.0 |
| 20260503030005 | 10 | 0 | 0.0 | 0.0 | 0.00 | 0.03 | 0.03 | 6 | 1012.9 |
| 20260503025405 | 10 | 0 | 0.0 | 0.0 | 0.00 | 0.03 | 0.03 | 10 | 1012.9 |
| 20260503024505 | 10 | 0 | 0.0 | 0.0 | 0.00 | 0.03 | 0.03 | 12 | 1013.0 |
| 20260503023604 | 10 | 0 | 0.0 | 0.0 | 0.00 | 0.03 | 0.03 | 14 | 1013.3 |
| 20260503022705 | 10 | 360 | 0.0 | 1.6 | 0.00 | 0.03 | 0.03 | 19 | 1013.4 |
| 20260503021804 | 10 | 360 | 0.0 | 1.6 | 0.00 | 0.03 | 0.03 | 31 | 1013.4 |
| 20260503020905 | 10 | 0 | 0.0 | 0.0 | 0.00 | 0.03 | 0.03 | 32 | 1013.1 |
| 20260503020005 | 10 | 0 | 0.0 | 0.0 | 0.00 | 0.03 | 0.03 | 34 | 1013.1 |
| 20260503015404 | 10 | 0 | 0.0 | 0.0 | 0.00 | 0.03 | 0.03 | 33 | 1013.1 |
| 20260503014714 | 11 | 0 | 0.0 | 0.0 | 0.00 | 0.03 | 0.03 | 36 | 1013.2 |
| 20260503013605 | 11 | 0 | 0.0 | 0.0 | 0.00 | 0.03 | 0.03 | 39 | 1013.1 |
| 20260503012705 | 11 | 0 | 0.0 | 0.0 | 0.00 | 0.03 | 0.03 | 43 | 1012.9 |
| 20260503011804 | 11 | 360 | 0.0 | 1.6 | 0.00 | 0.03 | 0.03 | 49 | 1012.9 |
| 20260503010905 | 11 | 0 | 0.0 | 0.0 | 0.00 | 0.03 | 0.03 | 55 | 1012.6 |
| 20260503010005 | 11 | 0 | 0.0 | 0.0 | 0.00 | 0.03 | 0.03 | 57 | 1012.6 |
| 20260503005405 | 12 | 0 | 0.0 | 0.0 | 0.00 | 0.03 | 0.03 | 58 | 1012.5 |
| 20260503004504 | 12 | 0 | 0.0 | 0.0 | 0.00 | 0.03 | 0.03 | 58 | 1012.5 |
| 20260503003605 | 12 | 0 | 0.0 | 0.0 | 0.00 | 0.03 | 0.03 | 56 | 1012.4 |
| 20260503002704 | 12 | 360 | 0.0 | 3.2 | 0.00 | 0.03 | 0.03 | 54 | 1012.3 |
| 20260503001805 | 12 | 360 | 0.0 | 3.2 | 0.00 | 0.03 | 0.03 | 54 | 1012.3 |
| 20260503001114 | 12 | 360 | 1.6 | 6.4 | 0.00 | 0.03 | 0.03 | 53 | 1012.3 |
| 20260503000005 | 12 | 360 | 1.6 | 6.4 | 0.00 | 0.03 | 0.03 | 54 | 1012.1 |
| 20260502235405 | 12 | 360 | 1.6 | 6.4 | 0.00 | 0.03 | 0.03 | 53 | 1012.1 |
| 20260502234505 | 12 | 360 | 3.2 | 8.0 | 0.00 | 0.03 | 0.03 | 53 | 1012.1 |
| 20260502233605 | 12 | 360 | 3.2 | 8.0 | 0.00 | 0.03 | 0.03 | 53 | 1012.0 |
| 20260502232704 | 12 | 360 | 1.6 | 8.0 | 0.00 | 0.03 | 0.03 | 56 | 1012.0 |
| 20260502231805 | 13 | 360 | 1.6 | 8.0 | 0.00 | 0.03 | 0.03 | 57 | 1011.8 |
| 20260502230905 | 13 | 360 | 3.2 | 6.4 | 0.00 | 0.03 | 0.03 | 56 | 1011.7 |
| 20260502230005 | 13 | 360 | 1.6 | 11.3 | 0.00 | 0.03 | 0.03 | 56 | 1011.8 |
| 20260502225405 | 13 | 360 | 1.6 | 6.4 | 0.00 | 0.03 | 0.03 | 56 | 1011.8 |
| 20260502224505 | 13 | 360 | 1.6 | 8.0 | 0.00 | 0.03 | 0.03 | 56 | 1011.8 |
| 20260502223605 | 13 | 360 | 1.6 | 8.0 | 0.00 | 0.03 | 0.03 | 56 | 1011.8 |
| 20260502222705 | 13 | 360 | 0.0 | 6.4 | 0.00 | 0.03 | 0.03 | 56 | 1011.8 |
| 20260502221804 | 13 | 360 | 1.6 | 6.4 | 0.00 | 0.03 | 0.03 | 55 | 1011.7 |
| 20260502220905 | 13 | 360 | 1.6 | 8.0 | 0.00 | 0.03 | 0.03 | 56 | 1011.7 |
| 20260502220005 | 14 | 360 | 1.6 | 8.0 | 0.00 | 0.03 | 0.03 | 56 | 1011.7 |
| 20260502215405 | 14 | 360 | 0.0 | 4.8 | 0.00 | 0.03 | 0.03 | 57 | 1011.6 |
| 20260502214505 | 14 | 360 | 1.6 | 6.4 | 0.00 | 0.03 | 0.03 | 57 | 1011.6 |
| 20260502213605 | 14 | 360 | 3.2 | 8.0 | 0.00 | 0.03 | 0.03 | 57 | 1011.5 |
| 20260502212705 | 14 | 360 | 1.6 | 6.4 | 0.00 | 0.03 | 0.03 | 58 | 1011.5 |
| 20260502211805 | 14 | 360 | 1.6 | 6.4 | 0.00 | 0.03 | 0.03 | 57 | 1011.5 |
| 20260502210905 | 14 | 360 | 1.6 | 8.0 | 0.00 | 0.03 | 0.03 | 56 | 1011.5 |
| 20260502210005 | 14 | 360 | 3.2 | 8.0 | 0.00 | 0.03 | 0.03 | 55 | 1011.6 |
| 20260502205405 | 14 | 360 | 1.6 | 11.3 | 0.00 | 0.03 | 0.03 | 56 | 1011.6 |
| 20260502204505 | 14 | 360 | 1.6 | 8.0 | 0.00 | 0.03 | 0.03 | 54 | 1011.3 |
| 20260502203605 | 14 | 360 | 3.2 | 11.3 | 0.00 | 0.03 | 0.03 | 53 | 1011.2 |
| 20260502202917 | 14 | 360 | 1.6 | 9.7 | 0.00 | 0.03 | 0.03 | 50 | 1011.3 |
| 20260502201805 | 14 | 360 | 3.2 | 6.4 | 0.00 | 0.03 | 0.03 | 49 | 1011.4 |
| 20260502200905 | 14 | 360 | 3.2 | 9.7 | 0.00 | 0.03 | 0.03 | 50 | 1011.5 |